Hourly Weather Roundup
Issued by NWS Central Illinois

Home | Current Version | Previous Version | Graphics & Text | Print | Product List | Glossary On
Versions: 1 2 3 4 5 6 7 8 9 10 11 12 13 14 15 16 17 18 19 20 21 22 23 24 25 26 27 28 29 30 31 32 33 34 35 36 37 38 39 40 41 42 43 44 45 46 47 48 49 50
600
NZUS43 KILX 050810
HWRILX

AREA WEATHER ROUNDUP
NATIONAL WEATHER SERVICE, LINCOLN IL
200 AM CST FRI FEB 05 2016


CITY           SKY/WX    TMP DP  RH WIND       PRES   REMARKS
BLOOMINGTON    PTCLDY    27  23  84 SW13      30.28S WCI  16
CHAMPAIGN      CLEAR     27  22  81 S12       30.30S WCI  17
DANVILLE       CLEAR     26  20  79 S7        30.29S WCI  18
DECATUR        CLEAR     29  20  69 SW10      30.30S WCI  20
EFFINGHAM      CLEAR     28  20  71 S5        30.36S WCI  23
FLORA          PTCLDY    25  19  78 S5        30.37S WCI  20
GALESBURG      CLOUDY    27  24  88 W9        30.31R WCI  17
JACKSONVILLE   CLEAR     28  22  78 NW5       30.32R WCI  23
LACON          CLOUDY    29  23  76 W3        30.28R
LAWRENCEVILLE  CLEAR     22  19  89 S6        30.38S WCI  14
LITCHFIELD     PTCLDY    27  21  78 S7        30.31F WCI  19
$$


CITY           SKY/WX    TMP DP  RH WIND       PRES   REMARKS
LINCOLN        CLEAR     30  24  77 SW3       30.29S
MACOMB         MOCLDY    26  23  87 NW9       30.34R WCI  17
MATTOON        CLEAR     28  19  69 S8        30.32S WCI  20
MT CARMEL AP   PTCLDY    25  19  80 CALM      30.38S
OLNEY-NOBLE AP CLEAR     27  18  69 S5        30.37S WCI  21
PARIS          CLEAR     28  22  78 S8        30.34S WCI  19
PEORIA         CLEAR     28  22  78 W10       30.30R WCI  19
PONTIAC        MOCLDY    30  25  81 SW9       30.29R WCI  21
RANTOUL        CLEAR     29  24  79 S6        30.30S WCI  23
ROBINSON       PTCLDY    22  17  79 S5        30.38S WCI  16
SPRINGFIELD    CLEAR     30  21  69 SW5       30.31R WCI  25
TAYLORVILLE    CLEAR     28  23  80 S9        30.30F WCI  20
$$

...REGIONAL REPORTS...


CITY           SKY/WX    TMP DP  RH WIND       PRES   REMARKS
CHICAGO O`HARE PTCLDY    25  20  81 S3        30.25R
KANKAKEE       CLOUDY    28  22  80 S7        30.29S WCI  20
MOLINE         CLOUDY    28  22  78 NW10      30.30R WCI  19
MOUNT STERLING CLEAR     25  22  87 NW7       30.33R WCI  17
MOUNT VERNON   CLEAR     21  14  73 CALM      30.36S
PITTSFIELD     CLEAR     29  24  82 NW9       30.34R WCI  20
QUINCY         PTCLDY    25  20  81 NW8       30.33R WCI  16
ROCKFORD       MOCLDY    28  24  85 CALM      30.26R
$$


CITY           SKY/WX    TMP DP  RH WIND       PRES   REMARKS
BURLINGTON     MOCLDY    27  20  75 NW12      30.32R WCI  17
CEDAR RAPIDS   PTCLDY    20  17  88 NW16      30.31R WCI   6
DES MOINES     CLOUDY    17  11  77 NW3       30.37S
KIRKSVILLE     CLEAR     22  17  81 NW5       30.35R WCI  16
OTTUMWA        CLEAR     20  17  88 NW8       30.35R WCI  10
ST LOUIS       CLEAR     32  17  54 SW8       30.32F WCI  25
$$


CITY           SKY/WX    TMP DP  RH WIND       PRES   REMARKS
TERRE HAUTE    CLEAR     23  17  78 CALM      30.35S
EVANSVILLE     CLEAR     27  19  72 CALM      30.40S
INDIANAPOLIS   CLEAR     22  15  75 S6        30.33S WCI  14
LAFAYETTE      CLEAR     23  18  81 CALM      30.32S
MADISON        CLOUDY    24  20  84 NW6       30.25R WCI  17
MILWAUKEE      MOCLDY    28  23  81 SW3       30.24S
$$






USA.gov is the U.S. government's official web portal to all federal, state and local government web resources and services.